Location: Sternwarte ZA, Rosenfeld-Brittheim
(48.2889°N, 8.6789°E)
Time: 11:23:47
(UTC+02:00)

ISS - Pass Details

Date: 17 May 2018
Orbit: 402 x 407 km, 51.6° (Epoch: 27 May)

Event Time Altitude Azimuth Distance (km) Brightness Sun altitude
Exits shadow 04:11:26 - 288° (WNW) 2,302 -0.2 -12.5°
Reaches altitude 10° 04:13:30 10° 293° (WNW) 1,459 -1.2 -12.3°
Maximum altitude 04:16:43 52° 11° (N) 508 -3.0 -11.9°
Drops below altitude 10° 04:19:55 10° 90° (E) 1,457 -0.4 -11.6°
Sets 04:22:02 0° 95° (E) 2,316 0.6 -11.3°
